IRIDIUM 33 DEB, 35797

Orbit data source: Space-Track

IRIDIUM 33 DEB, 35797 is space debris in LEO originally from a launch on Sun, 14 Sep 1997 UTC launched from the Tyuratam Missile And Space Complex (TTMTR). The debris from Iridium 33, an American commercial communications satellite, has been tracked extensively since its accidental collision with the defunct Russian satellite Cosmos 2251 in 2009. This event, occurring at high speed in low Earth orbit (LEO), generated thousands of pieces of space debris, significantly increasing the risk of further collisions. The Iridium 33 debris cloud has impacted space traffic management and orbital debris mitigation strategies, making it a subject of ongoing study in space situational awareness.

Loading next visibility...
Identifier
35797, 1997-051SF
Orbit
LEO
Country
Flag of USUS
Related business
Manufacturer
Unknown
Mission
Spacecraft
Bus & Motor
Unknown
Mass
Unknown
Launch date (UTC)
1997-09-14 (29 years ago)
Launch vehicle
Unknown
Launch site
Tyuratam Missile And Space Complex (TTMTR)
Object type
Payload
Rocket body
Debris
Shape & HBR
Unknown shape, 0.054 m
Radar Cross Section
Small (<0.1 m²)

Expand to show TLE details & history
Last TLE update: 3 days ago

TLE from 3 days ago
0 IRIDIUM 33 DEB
1 35797U 97051SF  26265.11166328  .00007533  00000-0  77783-3 0  9995
2 35797  86.3374 198.9006 0006606 234.9040 125.1568 14.90023086915519
Epoch: 2026-09-22T02:40Z
TLE epoch observation values (Epoch: 2026-09-22T02:40:47.707Z)
Latitude
0.00001°
Longitude
157.72°
Altitude
603.649 km
Speed
7.556 km/s
True Right ascension
13h 15m 36s
True Declination
0° 00' 00"
Sunlit
Object was in daylight at epoch
Visualization orbit readout
Latitude
Unknown
Longitude
Unknown
Altitude
Unknown
Speed
Unknown
Apparent Right ascension
Unknown
Apparent Declination
Unknown
Sunlit
N/A
Visualization observer readout
Local Sidereal Time
11:35:38
Azimuth
Unknown
Elevation
Unknown
Doppler factor
Unknown
Orbital elements
Apogee altitude
599.357 km
Perigee altitude
590.145 km
Semi-major axis
6,972.888 km
Eccentricity
0.00066
Inclination
86.3374°
RAAN
198.9006°
Arg. of periapsis
234.904°
True anomaly
125.21866°
Mean anomaly
125.1568°
Eccentric anomaly
125.18773°
Mean motion
3.72756 °/min
Orbital period
96.58 mins
BSTAR
0.00077783

Documentation

Showing up to 5 results
|